Location: Henry
(41.9986°N, 104.0474°W)
Time: 14:31:09
(UTC+00:00)

Tiangong - Visible Passes

Search period start: 13 October 2024 00:00
Search period end: 23 October 2024 00:00
Orbit: 372 x 377 km, 41.5° (Epoch: 12 October)

Date Brightness Start Highest point End Pass type
(mag) Time Alt. Az. Time Alt. Az. Time Alt. Az.
17 Oct -0.1 12:23:41 10° SSW 12:26:17 24° SSE 12:28:52 10° E visible
18 Oct 0.4 11:22:31 14° SSE 11:23:07 15° SSE 11:24:57 10° ESE visible
19 Oct -0.9 11:54:25 21° SSW 11:55:55 34° SSE 11:58:46 10° E visible
20 Oct 0.8 10:54:09 15° ESE 10:54:09 15° ESE 10:54:59 10° E visible
20 Oct -2.0 12:26:08 13° WSW 12:28:49 66° S 12:31:54 10° E visible
21 Oct -1.2 11:25:43 42° SE 11:25:43 42° SE 11:28:16 10° E visible
22 Oct -2.2 11:57:09 41° WSW 11:58:05 77° S 12:01:10 10° E visible
